Location: Góry Miechowskie
(50.3599°N, 20.1803°E)
Time: 01:47:07
(UTC+00:00)

Cosmos 2219 - Pass Details

Date: 15 June 2024
Orbit: 834 x 858 km, 71.1° (Epoch: 22 July)

Event Time Altitude Azimuth Distance (km) Brightness Sun altitude
Exits shadow 00:27:44 15° 227° (SW) 2,102 4.7 -12.5°
Maximum altitude 00:32:20 59° 304° (NW) 961 3.5 -12.2°
Drops below altitude 10° 00:37:53 10° 24° (NNE) 2,455 7.2 -11.8°
Sets 00:40:23 0° 28° (NNE) 3,393 8.6 -11.6°
